LOT79W MGGT-MMMX

Flight info

Callsign LOT79W
Flight time 1h 34m
Altitude 36000
Route KALPA UA552 TGZ UJ9 IZT UT157 LARLO LARLO4A
Aircraft B738/M-SDE2E3FGHIRWXY/LB1

Departure

Time 2026-04-25 15:06
Airport La Aurora International Airport (MGGT)

Arrival

Time 2026-04-25 16:40
Airport Mexico City Benito Juárez International Airport (MMMX)
Time Latitude Longitude Altitude Speed Heading
2026-04-25 14:42 14.58890 -90.52905 4943 ft 0 kts 287°
2026-04-25 15:01 14.58885 -90.52889 4947 ft 3 kts 287°
2026-04-25 15:01 14.58879 -90.52871 4945 ft 3 kts 287°
2026-04-25 15:01 14.58872 -90.52854 4945 ft 3 kts 333°
2026-04-25 15:01 14.58857 -90.52852 4946 ft 0 kts 18°
2026-04-25 15:02 14.58858 -90.52852 4946 ft 1 kts 19°
2026-04-25 15:03 14.58863 -90.52839 4946 ft 3 kts 84°
2026-04-25 15:03 14.58854 -90.52793 4949 ft 8 kts 118°
2026-04-25 15:03 14.58816 -90.52757 4947 ft 7 kts 143°
2026-04-25 15:03 14.58788 -90.52717 4946 ft 7 kts 106°
2026-04-25 15:04 14.58775 -90.52669 4947 ft 7 kts 105°
2026-04-25 15:04 14.58754 -90.52625 4947 ft 7 kts 137°
2026-04-25 15:04 14.58706 -90.52626 4944 ft 5 kts 194°
2026-04-25 15:04 14.58703 -90.52627 4944 ft 3 kts 194°
2026-04-25 15:05 14.58627 -90.52648 4942 ft 32 kts 195°
2026-04-25 15:05 14.58150 -90.52798 4933 ft 109 kts 197°
2026-04-25 15:05 14.57204 -90.53107 4906 ft 174 kts 197°
2026-04-25 15:06 14.54746 -90.53934 6316 ft 190 kts 195°
2026-04-25 15:06 14.53416 -90.54291 6800 ft 208 kts 194°
2026-04-25 15:06 14.51929 -90.54688 6975 ft 232 kts 196°
2026-04-25 15:06 14.50494 -90.55572 7120 ft 254 kts 232°
2026-04-25 15:07 14.49821 -90.57287 7355 ft 273 kts 267°
2026-04-25 15:07 14.50258 -90.59222 7784 ft 286 kts 303°
2026-04-25 15:07 14.51592 -90.60739 8577 ft 286 kts 319°
2026-04-25 15:07 14.53091 -90.62104 9373 ft 289 kts 320°
2026-04-25 15:08 14.54626 -90.63476 10114 ft 293 kts 320°
2026-04-25 15:08 14.56205 -90.64896 10476 ft 312 kts 320°
2026-04-25 15:08 14.57895 -90.66440 10649 ft 335 kts 319°
2026-04-25 15:08 14.59661 -90.68074 10826 ft 354 kts 319°
2026-04-25 15:09 14.61516 -90.69812 11264 ft 364 kts 318°
2026-04-25 15:09 14.63388 -90.71576 11984 ft 364 kts 318°
2026-04-25 15:09 14.67130 -90.75120 13316 ft 368 kts 318°
2026-04-25 15:10 14.69025 -90.76920 13922 ft 370 kts 318°
2026-04-25 15:10 14.70928 -90.78730 14461 ft 374 kts 318°
2026-04-25 15:10 14.74792 -90.82408 15455 ft 381 kts 318°
2026-04-25 15:11 14.76755 -90.84276 15948 ft 385 kts 318°
2026-04-25 15:11 14.78730 -90.86158 16453 ft 387 kts 319°
2026-04-25 15:11 14.80716 -90.88050 16980 ft 390 kts 319°
2026-04-25 15:12 14.84720 -90.91865 17912 ft 397 kts 319°
2026-04-25 15:12 14.86764 -90.93814 18385 ft 400 kts 319°
2026-04-25 15:12 14.88814 -90.95769 18815 ft 402 kts 319°
2026-04-25 15:12 14.89510 -90.96433 18961 ft 403 kts 319°
2026-04-25 15:13 14.92947 -90.99712 19647 ft 406 kts 319°
2026-04-25 15:13 14.97126 -91.03702 20470 ft 410 kts 318°
2026-04-25 15:13 14.99231 -91.05712 20861 ft 413 kts 318°
2026-04-25 15:14 15.01333 -91.07751 21236 ft 415 kts 315°
2026-04-25 15:14 15.03276 -91.09983 21624 ft 418 kts 311°
2026-04-25 15:14 15.05141 -91.12303 22008 ft 420 kts 310°
2026-04-25 15:14 15.06969 -91.14625 22378 ft 422 kts 310°
2026-04-25 15:15 15.08832 -91.16987 22708 ft 424 kts 310°
2026-04-25 15:15 15.10720 -91.19362 23069 ft 426 kts 310°
2026-04-25 15:15 15.12617 -91.21731 23423 ft 429 kts 310°
2026-04-25 15:15 15.14530 -91.24108 23729 ft 431 kts 310°
2026-04-25 15:16 15.16458 -91.26498 24000 ft 433 kts 310°
2026-04-25 15:16 15.18369 -91.28865 24270 ft 435 kts 310°
2026-04-25 15:16 15.22263 -91.33690 24833 ft 438 kts 310°
2026-04-25 15:17 15.26190 -91.38560 25364 ft 442 kts 310°
2026-04-25 15:17 15.28165 -91.41011 25621 ft 444 kts 310°
2026-04-25 15:17 15.30145 -91.43470 25923 ft 445 kts 310°
2026-04-25 15:18 15.32129 -91.45933 26220 ft 446 kts 310°
2026-04-25 15:18 15.35440 -91.50051 26632 ft 449 kts 309°
2026-04-25 15:18 15.38098 -91.53362 26960 ft 451 kts 309°
2026-04-25 15:19 15.40109 -91.55867 27181 ft 454 kts 309°
2026-04-25 15:19 15.40791 -91.56718 27261 ft 454 kts 309°
2026-04-25 15:19 15.44156 -91.60914 27662 ft 457 kts 309°
2026-04-25 15:19 15.45532 -91.62630 27820 ft 458 kts 309°
2026-04-25 15:20 15.47570 -91.65173 28050 ft 459 kts 309°
2026-04-25 15:20 15.49616 -91.67727 28270 ft 461 kts 309°
2026-04-25 15:20 15.51668 -91.70289 28487 ft 462 kts 309°
2026-04-25 15:20 15.53700 -91.72828 28684 ft 464 kts 309°
2026-04-25 15:21 15.55767 -91.75410 28891 ft 466 kts 309°
2026-04-25 15:21 15.57837 -91.77998 29103 ft 467 kts 309°
2026-04-25 15:21 15.59914 -91.80595 29362 ft 467 kts 309°
2026-04-25 15:21 15.61985 -91.83185 29691 ft 466 kts 309°
2026-04-25 15:22 15.64049 -91.85768 30046 ft 463 kts 309°
2026-04-25 15:22 15.66093 -91.88326 30502 ft 457 kts 309°
2026-04-25 15:22 15.68117 -91.90860 30850 ft 455 kts 309°
2026-04-25 15:22 15.70137 -91.93391 31144 ft 454 kts 308°
2026-04-25 15:23 15.72152 -91.95914 31422 ft 454 kts 308°
2026-04-25 15:23 15.74171 -91.98440 31695 ft 453 kts 308°
2026-04-25 15:23 15.76156 -92.00923 31983 ft 452 kts 308°
2026-04-25 15:23 15.78164 -92.03434 32275 ft 451 kts 308°
2026-04-25 15:24 15.80166 -92.05941 32580 ft 450 kts 308°
2026-04-25 15:24 15.82164 -92.08443 32862 ft 450 kts 308°
2026-04-25 15:24 15.84158 -92.10942 33165 ft 449 kts 308°
2026-04-25 15:24 15.85503 -92.12628 33374 ft 448 kts 308°
2026-04-25 15:25 15.88134 -92.15928 33750 ft 447 kts 308°
2026-04-25 15:25 15.90116 -92.18414 34025 ft 447 kts 308°
2026-04-25 15:25 15.92099 -92.20903 34264 ft 446 kts 308°
2026-04-25 15:25 15.94081 -92.23391 34477 ft 446 kts 308°
2026-04-25 15:26 15.96058 -92.25875 34687 ft 446 kts 308°
2026-04-25 15:26 15.98037 -92.28361 34902 ft 446 kts 308°
2026-04-25 15:26 16.00010 -92.30840 35142 ft 445 kts 308°
2026-04-25 15:26 16.01982 -92.33319 35396 ft 444 kts 308°
2026-04-25 15:27 16.03948 -92.35792 35604 ft 444 kts 308°
2026-04-25 15:27 16.05913 -92.38264 35803 ft 444 kts 308°
2026-04-25 15:27 16.09834 -92.43200 35956 ft 447 kts 308°
2026-04-25 15:28 16.11813 -92.45692 35954 ft 446 kts 308°
2026-04-25 15:28 16.15746 -92.50648 35951 ft 442 kts 308°
2026-04-25 15:29 16.19649 -92.55570 35966 ft 439 kts 308°
2026-04-25 15:29 16.23530 -92.60466 35954 ft 438 kts 308°
2026-04-25 15:30 16.27398 -92.65352 35955 ft 437 kts 308°
2026-04-25 15:30 16.31242 -92.70208 35961 ft 437 kts 308°
2026-04-25 15:31 16.35115 -92.75108 35973 ft 439 kts 308°
2026-04-25 15:31 16.38998 -92.80026 35965 ft 440 kts 308°
2026-04-25 15:32 16.42899 -92.84970 35995 ft 442 kts 308°
2026-04-25 15:32 16.46810 -92.89930 36002 ft 444 kts 308°
2026-04-25 15:33 16.52700 -92.97406 36025 ft 446 kts 308°
2026-04-25 15:33 16.56018 -93.02805 36027 ft 443 kts 289°
2026-04-25 15:34 16.56797 -93.05904 36018 ft 443 kts 278°
2026-04-25 15:34 16.56943 -93.09116 36018 ft 443 kts 268°
2026-04-25 15:34 16.56628 -93.14449 36010 ft 444 kts 267°
2026-04-25 15:35 16.56022 -93.25113 35994 ft 443 kts 268°
2026-04-25 15:36 16.55551 -93.34742 35969 ft 443 kts 268°
2026-04-25 15:36 16.55235 -93.41161 35957 ft 443 kts 268°
2026-04-25 15:37 16.54923 -93.47564 35961 ft 442 kts 268°
2026-04-25 15:37 16.54613 -93.53915 35958 ft 441 kts 268°
2026-04-25 15:38 16.54299 -93.60311 35959 ft 441 kts 268°
2026-04-25 15:38 16.53983 -93.66696 35953 ft 440 kts 268°
2026-04-25 15:39 16.53665 -93.73065 35956 ft 440 kts 268°
2026-04-25 15:39 16.53349 -93.79385 35963 ft 439 kts 268°
2026-04-25 15:40 16.53134 -93.83636 35964 ft 439 kts 268°
2026-04-25 15:40 16.52705 -93.92102 35961 ft 439 kts 268°
2026-04-25 15:41 16.52380 -93.98466 35957 ft 439 kts 268°
2026-04-25 15:41 16.52053 -94.04823 35959 ft 439 kts 268°
2026-04-25 15:42 16.51725 -94.11171 35964 ft 438 kts 268°
2026-04-25 15:42 16.51395 -94.17517 35963 ft 439 kts 268°
2026-04-25 15:43 16.51065 -94.23845 35951 ft 440 kts 268°
2026-04-25 15:43 16.50730 -94.30210 35961 ft 440 kts 268°
2026-04-25 15:44 16.50393 -94.36588 35958 ft 441 kts 268°
2026-04-25 15:44 16.50054 -94.42970 35947 ft 442 kts 268°
2026-04-25 15:45 16.49712 -94.49363 35953 ft 442 kts 268°
2026-04-25 15:45 16.49481 -94.53644 35952 ft 442 kts 268°
2026-04-25 15:46 16.49020 -94.62181 35937 ft 442 kts 268°
2026-04-25 15:46 16.48674 -94.68545 35940 ft 443 kts 268°
2026-04-25 15:47 16.48323 -94.74962 35923 ft 443 kts 268°
2026-04-25 15:47 16.47970 -94.81376 35930 ft 443 kts 268°
2026-04-25 15:48 16.47615 -94.87787 35922 ft 443 kts 268°
2026-04-25 15:48 16.47259 -94.94190 35924 ft 443 kts 268°
2026-04-25 15:49 16.46904 -95.00551 35922 ft 442 kts 268°
2026-04-25 15:49 16.46746 -95.06941 35905 ft 441 kts 277°
2026-04-25 15:50 16.48323 -95.13073 35922 ft 439 kts 295°
2026-04-25 15:50 16.51291 -95.18634 35919 ft 439 kts 300°
2026-04-25 15:51 16.53355 -95.22301 35925 ft 439 kts 300°
2026-04-25 15:51 16.57433 -95.29639 35919 ft 439 kts 300°
2026-04-25 15:52 16.60449 -95.35141 35923 ft 439 kts 299°
2026-04-25 15:52 16.63477 -95.40685 35917 ft 440 kts 299°
2026-04-25 15:53 16.66458 -95.46146 35914 ft 427 kts 299°
2026-04-25 15:53 16.69381 -95.51504 35942 ft 430 kts 299°
2026-04-25 15:54 16.72367 -95.56982 35916 ft 438 kts 299°
2026-04-25 15:54 16.75407 -95.62560 35922 ft 445 kts 299°
2026-04-25 15:55 16.78447 -95.68147 35930 ft 433 kts 299°
2026-04-25 15:55 16.81362 -95.73510 35920 ft 425 kts 300°
2026-04-25 15:56 16.84315 -95.78938 35936 ft 434 kts 300°
2026-04-25 15:56 16.87315 -95.84468 35949 ft 441 kts 300°
2026-04-25 15:57 16.90340 -95.90053 35944 ft 442 kts 300°
2026-04-25 15:57 16.93377 -95.95664 35967 ft 444 kts 300°
2026-04-25 15:58 16.96391 -96.01238 35961 ft 443 kts 300°
2026-04-25 15:58 16.99412 -96.06820 35962 ft 440 kts 300°
2026-04-25 15:59 17.02422 -96.12398 35993 ft 438 kts 300°
2026-04-25 15:59 17.05410 -96.17942 35982 ft 437 kts 300°
2026-04-25 16:00 17.06902 -96.20710 35986 ft 436 kts 300°
2026-04-25 16:00 17.11361 -96.28988 35992 ft 435 kts 300°
2026-04-25 16:01 17.14310 -96.34468 35983 ft 434 kts 300°
2026-04-25 16:01 17.17262 -96.39956 36010 ft 432 kts 300°
2026-04-25 16:02 17.20211 -96.45437 36003 ft 432 kts 300°
2026-04-25 16:02 17.23161 -96.50926 35995 ft 433 kts 300°
2026-04-25 16:03 17.26116 -96.56429 36042 ft 434 kts 300°
2026-04-25 16:03 17.29073 -96.61941 36045 ft 435 kts 300°
2026-04-25 16:04 17.32018 -96.67435 36026 ft 436 kts 300°
2026-04-25 16:04 17.34991 -96.72986 36015 ft 437 kts 299°
2026-04-25 16:05 17.37462 -96.77604 35990 ft 438 kts 300°
2026-04-25 16:06 17.41935 -96.85971 35997 ft 439 kts 300°
2026-04-25 16:06 17.44919 -96.91560 35994 ft 439 kts 300°
2026-04-25 16:07 17.47901 -96.97148 36001 ft 439 kts 300°
2026-04-25 16:07 17.50885 -97.02744 35983 ft 440 kts 300°
2026-04-25 16:08 17.53851 -97.08315 35977 ft 440 kts 300°
2026-04-25 16:08 17.56840 -97.13930 35980 ft 440 kts 300°
2026-04-25 16:09 17.59970 -97.19429 36000 ft 439 kts 307°
2026-04-25 16:09 17.64180 -97.24049 35992 ft 437 kts 316°
2026-04-25 16:10 17.68603 -97.28424 35990 ft 437 kts 316°
2026-04-25 16:10 17.73002 -97.32814 36000 ft 436 kts 316°
2026-04-25 16:11 17.77349 -97.37191 35985 ft 435 kts 315°
2026-04-25 16:11 17.81710 -97.41599 35975 ft 435 kts 315°
2026-04-25 16:12 17.86066 -97.46006 35974 ft 435 kts 315°
2026-04-25 16:12 17.90424 -97.50415 35966 ft 435 kts 315°
2026-04-25 16:13 17.94793 -97.54829 35948 ft 436 kts 315°
2026-04-25 16:13 17.99153 -97.59254 35960 ft 436 kts 315°
2026-04-25 16:14 18.03491 -97.63658 35965 ft 436 kts 315°
2026-04-25 16:14 18.07865 -97.68098 35959 ft 437 kts 315°
2026-04-25 16:15 18.12250 -97.72551 35952 ft 438 kts 315°
2026-04-25 16:15 18.16631 -97.77003 35956 ft 438 kts 315°
2026-04-25 16:16 18.21020 -97.81468 35945 ft 439 kts 315°
2026-04-25 16:16 18.25415 -97.85940 35943 ft 439 kts 315°
2026-04-25 16:17 18.29777 -97.90376 35939 ft 438 kts 315°
2026-04-25 16:17 18.31977 -97.92614 35714 ft 442 kts 315°
2026-04-25 16:17 18.34194 -97.94871 35167 ft 444 kts 315°
2026-04-25 16:17 18.36411 -97.97129 34530 ft 444 kts 315°
2026-04-25 16:18 18.38634 -97.99395 33868 ft 445 kts 315°
2026-04-25 16:18 18.39384 -98.00160 33600 ft 446 kts 315°
2026-04-25 16:18 18.43090 -98.03939 32555 ft 444 kts 315°
2026-04-25 16:18 18.45296 -98.06190 32028 ft 439 kts 315°
2026-04-25 16:19 18.47478 -98.08416 31562 ft 435 kts 315°
2026-04-25 16:19 18.49645 -98.10629 31073 ft 431 kts 315°
2026-04-25 16:19 18.51792 -98.12822 30600 ft 428 kts 315°
2026-04-25 16:20 18.56004 -98.17127 29628 ft 421 kts 315°
2026-04-25 16:20 18.58101 -98.19272 29105 ft 417 kts 315°
2026-04-25 16:20 18.62233 -98.23500 28092 ft 409 kts 315°
2026-04-25 16:21 18.64269 -98.25584 27611 ft 406 kts 315°
2026-04-25 16:21 18.66285 -98.27649 27140 ft 402 kts 315°
2026-04-25 16:21 18.68281 -98.29693 26696 ft 399 kts 315°
2026-04-25 16:21 18.70243 -98.31750 26229 ft 396 kts 310°
2026-04-25 16:22 18.71709 -98.34153 25750 ft 395 kts 294°
2026-04-25 16:22 18.72503 -98.36928 25245 ft 396 kts 283°
2026-04-25 16:22 18.73027 -98.39784 24697 ft 397 kts 282°
2026-04-25 16:22 18.73516 -98.42650 24173 ft 397 kts 281°
2026-04-25 16:23 18.74005 -98.45524 23647 ft 398 kts 282°
2026-04-25 16:23 18.74505 -98.48403 23051 ft 399 kts 282°
2026-04-25 16:23 18.75015 -98.51278 22478 ft 398 kts 282°
2026-04-25 16:23 18.75529 -98.54141 21940 ft 397 kts 282°
2026-04-25 16:24 18.76046 -98.56992 21412 ft 396 kts 282°
2026-04-25 16:24 18.76564 -98.59839 20893 ft 394 kts 282°
2026-04-25 16:24 18.77080 -98.62675 20376 ft 392 kts 282°
2026-04-25 16:24 18.77593 -98.65501 19857 ft 391 kts 282°
2026-04-25 16:25 18.78098 -98.68278 19329 ft 390 kts 282°
2026-04-25 16:25 18.78441 -98.70173 19017 ft 390 kts 282°
2026-04-25 16:25 18.79115 -98.73892 18326 ft 389 kts 282°
2026-04-25 16:25 18.79624 -98.76698 17753 ft 389 kts 282°
2026-04-25 16:26 18.80129 -98.79494 17203 ft 387 kts 282°
2026-04-25 16:26 18.80633 -98.82253 16958 ft 377 kts 283°
2026-04-25 16:26 18.81177 -98.84904 16883 ft 363 kts 284°
2026-04-25 16:26 18.81729 -98.87451 16867 ft 348 kts 284°
2026-04-25 16:27 18.82262 -98.89896 16860 ft 334 kts 284°
2026-04-25 16:27 18.82773 -98.92260 16896 ft 327 kts 284°
2026-04-25 16:27 18.83268 -98.94577 16905 ft 320 kts 284°
2026-04-25 16:27 18.83748 -98.96842 16914 ft 313 kts 284°
2026-04-25 16:28 18.84211 -98.99031 16946 ft 306 kts 284°
2026-04-25 16:28 18.84644 -99.01205 16966 ft 300 kts 282°
2026-04-25 16:28 18.85019 -99.03361 16994 ft 300 kts 282°
2026-04-25 16:28 18.85391 -99.05548 17027 ft 304 kts 282°
2026-04-25 16:29 18.85769 -99.07755 17056 ft 307 kts 282°
2026-04-25 16:29 18.86153 -99.09972 17060 ft 306 kts 282°
2026-04-25 16:29 18.86539 -99.12184 17077 ft 305 kts 282°
2026-04-25 16:29 18.86940 -99.14382 17096 ft 304 kts 287°
2026-04-25 16:30 18.87463 -99.15742 17085 ft 300 kts 304°
2026-04-25 16:30 18.89104 -99.18113 17123 ft 299 kts 308°
2026-04-25 16:30 18.90333 -99.19849 17135 ft 298 kts 308°
2026-04-25 16:30 18.91584 -99.21635 17126 ft 299 kts 308°
2026-04-25 16:31 18.92850 -99.23338 17116 ft 298 kts 318°
2026-04-25 16:31 18.94628 -99.24451 17116 ft 294 kts 345°
2026-04-25 16:31 18.96629 -99.24653 17056 ft 295 kts
2026-04-25 16:31 18.98589 -99.23980 16704 ft 299 kts 30°
2026-04-25 16:32 19.00182 -99.22585 16514 ft 299 kts 46°
2026-04-25 16:32 19.01569 -99.20942 16313 ft 298 kts 48°
2026-04-25 16:32 19.02915 -99.19280 16141 ft 297 kts 49°
2026-04-25 16:32 19.04257 -99.17618 15937 ft 296 kts 49°
2026-04-25 16:33 19.05596 -99.15970 15729 ft 295 kts 48°
2026-04-25 16:33 19.06939 -99.14328 15531 ft 295 kts 48°
2026-04-25 16:33 19.08284 -99.12693 15330 ft 294 kts 48°
2026-04-25 16:33 19.09610 -99.11085 15170 ft 294 kts 48°
2026-04-25 16:34 19.10956 -99.09456 14982 ft 294 kts 48°
2026-04-25 16:34 19.12302 -99.07828 14821 ft 294 kts 48°
2026-04-25 16:34 19.13640 -99.06210 14633 ft 290 kts 48°
2026-04-25 16:34 19.14967 -99.04629 14457 ft 285 kts 44°
2026-04-25 16:35 19.16618 -99.03532 14267 ft 280 kts 17°
2026-04-25 16:35 19.18536 -99.03324 14053 ft 279 kts 352°
2026-04-25 16:35 19.20385 -99.03943 13749 ft 281 kts 331°
2026-04-25 16:35 19.21934 -99.05208 13420 ft 283 kts 318°
2026-04-25 16:36 19.23364 -99.06645 13080 ft 284 kts 316°
2026-04-25 16:36 19.23828 -99.07117 12961 ft 285 kts 316°
2026-04-25 16:36 19.26110 -99.09699 12403 ft 288 kts 311°
2026-04-25 16:36 19.27438 -99.11291 12074 ft 289 kts 311°
2026-04-25 16:37 19.28764 -99.12871 11721 ft 291 kts 312°
2026-04-25 16:37 19.30124 -99.14475 11372 ft 293 kts 312°
2026-04-25 16:37 19.31482 -99.16068 10994 ft 288 kts 313°
2026-04-25 16:37 19.32841 -99.17595 10636 ft 282 kts 321°
2026-04-25 16:38 19.34581 -99.18444 10285 ft 275 kts 354°
2026-04-25 16:38 19.36416 -99.18137 9974 ft 268 kts 27°
2026-04-25 16:38 19.37809 -99.16879 9654 ft 261 kts 52°
2026-04-25 16:38 19.38880 -99.15361 9461 ft 250 kts 54°
2026-04-25 16:39 19.39756 -99.13881 9403 ft 231 kts 59°
2026-04-25 16:39 19.40545 -99.12443 9186 ft 227 kts 59°
2026-04-25 16:39 19.41335 -99.10998 8661 ft 229 kts 60°
2026-04-25 16:39 19.42158 -99.09517 7839 ft 236 kts 57°
2026-04-25 16:40 19.43022 -99.08027 7345 ft 235 kts 61°
2026-04-25 16:40 19.43773 -99.06670 7302 ft 184 kts 60°
2026-04-25 16:40 19.44324 -99.05705 7300 ft 109 kts 57°
2026-04-25 16:40 19.44504 -99.05427 7301 ft 5 kts 68°
2026-04-25 16:41 19.44511 -99.05345 7301 ft 21 kts 104°
2026-04-25 16:41 19.44480 -99.05296 7302 ft 6 kts 143°
2026-04-25 16:41 19.44458 -99.05281 7302 ft 5 kts 147°
2026-04-25 16:42 19.44430 -99.05263 7302 ft 5 kts 153°
2026-04-25 16:42 19.44396 -99.05255 7302 ft 7 kts 191°
2026-04-25 16:42 19.44335 -99.05317 7302 ft 17 kts 245°
2026-04-25 16:42 19.44266 -99.05442 7302 ft 20 kts 239°
2026-04-25 16:43 19.44192 -99.05567 7302 ft 20 kts 237°
2026-04-25 16:43 19.44125 -99.05689 7302 ft 19 kts 240°
2026-04-25 16:43 19.44061 -99.05808 7302 ft 18 kts 240°
2026-04-25 16:43 19.43998 -99.05923 7302 ft 18 kts 239°
2026-04-25 16:44 19.43937 -99.06033 7302 ft 17 kts 239°
2026-04-25 16:44 19.43879 -99.06138 7302 ft 16 kts 239°
2026-04-25 16:44 19.43821 -99.06240 7302 ft 16 kts 239°
2026-04-25 16:44 19.43766 -99.06338 7302 ft 15 kts 239°
2026-04-25 16:45 19.43712 -99.06431 7302 ft 15 kts 238°
2026-04-25 16:45 19.43660 -99.06521 7302 ft 14 kts 238°
2026-04-25 16:45 19.43611 -99.06606 7302 ft 13 kts 238°
2026-04-25 16:45 19.43564 -99.06688 7302 ft 13 kts 231°
2026-04-25 16:46 19.43488 -99.06734 7302 ft 13 kts 202°
2026-04-25 16:46 19.43410 -99.06772 7302 ft 12 kts 205°
2026-04-25 16:46 19.43339 -99.06818 7302 ft 12 kts 217°
2026-04-25 16:46 19.43322 -99.06842 7302 ft 12 kts 236°
2026-04-25 16:47 19.43247 -99.06959 7302 ft 11 kts 236°
2026-04-25 16:47 19.43212 -99.07031 7302 ft 11 kts 271°
2026-04-25 16:47 19.43223 -99.07109 7302 ft 11 kts 288°
2026-04-25 16:47 19.43284 -99.07246 7302 ft 33 kts 296°
2026-04-25 16:48 19.43400 -99.07498 7302 ft 43 kts 296°
2026-04-25 16:48 19.43557 -99.07771 7302 ft 41 kts 296°
2026-04-25 16:48 19.43497 -99.07983 7302 ft 34 kts 234°
2026-04-25 16:48 19.43377 -99.08193 7302 ft 8 kts 255°
2026-04-25 16:49 19.43411 -99.08248 7302 ft 10 kts 342°
2026-04-25 16:49 19.43437 -99.08266 7302 ft 0 kts 324°